Weather History for Brownsville, TX

Change the Weather History Date:

Monday, March 3, 2014

  Actual Average Record
Temperature  
Mean Temperature 54 °F 67 °F  
Max Temperature 70 °F 76 °F 90 °F (1893)
Min Temperature 37 °F 57 °F 32 °F (1922)
Degree Days  
Heating Degree Days 11 2  
Month to date heating degree days 11 6  
Since 1 July heating degree days 735 509  
Cooling Degree Days 0 4  
Month to date cooling degree days 19 12  
Year to date cooling degree days 139 153  
Growing Degree Days 4 (Base 50)    
Moisture  
Dew Point 40 °F    
Average Humidity 82    
Maximum Humidity 100    
Minimum Humidity 64    
Precipitation  
Precipitation T in 0.04 in 0.43 in (1958)
Month to date precipitation T 0.11  
Year to date precipitation 0.76 2.46  
Sea Level Pressure  
Sea Level Pressure 30.17 in    
Wind  
Wind Speed 15 mph (NNW)    
Max Wind Speed 23 mph    
Max Gust Speed 35 mph    
Visibility 8 miles    
Events Rain    
T = Trace of Precipitation, MM = Missing Value Source: NWS Daily Summary

Daily Weather History Graph

Daily Weather History Graph

Search for Another Location

Airport:

Trip Planner

Search our weather history database for the weather conditions in past years. The results will help you decide how hot, cold, wet, or windy it might be!

Date:

Astronomy

Mar. 03, 2014 Rise Set
Actual Time 6:51 AM CST 6:32 PM CST
Civil Twilight 6:27 AM CST 6:55 PM CST
Nautical Twilight 6:01 AM CST 7:22 PM CST
Astronomical Twilight 5:34 AM CST 7:48 PM CST
Moon 8:18 AM CST (3/3) 9:14 PM CST (3/3)
Length of Visible Light 12h 27m
Length of Day
11h 41m
Waxing Crescent, 8% of the Moon is Illuminated
Mar 3
Waxing Crescent
Mar 8
First Quarter
Mar 16
Full
Mar 23
Last Quarter
Mar 30
New

Hourly Weather History & Observations

Time (CST) Temp. Windchill Dew Point Humidity Pressure Visibility Wind Dir Wind Speed Gust Speed Precip Events Conditions
12:07 AM 69.8 °F - 69.8 °F 100% 29.96 in 8.0 mi East 6.9 mph - N/A   Overcast
12:49 AM 69.8 °F - 68.0 °F 94% 29.97 in 2.5 mi NNE 10.4 mph - N/A   Overcast
12:53 AM 69.1 °F - 69.1 °F 100% 29.97 in 2.5 mi NNE 9.2 mph - N/A   Overcast
1:05 AM 62.6 °F - 62.6 °F 100% 29.99 in 6.0 mi North 15.0 mph 28.8 mph N/A   Overcast
1:53 AM 57.0 °F - 55.9 °F 96% 30.01 in 6.0 mi North 17.3 mph 28.8 mph N/A   Overcast
2:53 AM 55.0 °F - 54.0 °F 96% 30.02 in 6.0 mi North 18.4 mph 25.3 mph 0.00 in Rain Light Rain
3:53 AM 53.1 °F - 52.0 °F 96% 30.04 in 6.0 mi North 19.6 mph 26.5 mph 0.00 in Rain Light Rain
4:53 AM 51.1 °F - 51.1 °F 100% 30.07 in 5.0 mi North 19.6 mph 26.5 mph 0.00 in Rain Light Rain
5:53 AM 48.9 °F - 48.0 °F 97% 30.10 in 8.0 mi North 18.4 mph 29.9 mph 0.00 in   Overcast
6:53 AM 44.1 °F 36.8 °F 42.1 °F 93% 30.14 in 9.0 mi North 16.1 mph 26.5 mph N/A   Overcast
7:22 AM 42.8 °F 34.8 °F 39.2 °F 87% 30.17 in 3.0 mi NNW 17.3 mph 26.5 mph N/A   Overcast
7:53 AM 41.0 °F 32.8 °F 39.0 °F 93% 30.19 in 3.0 mi NNW 16.1 mph 26.5 mph N/A   Overcast
8:53 AM 37.9 °F 30.5 °F 36.0 °F 93% 30.25 in 3.0 mi NNW 11.5 mph 24.2 mph N/A   Overcast
9:31 AM 37.4 °F 29.3 °F 35.6 °F 93% 30.27 in 3.0 mi NNW 12.7 mph 31.1 mph N/A   Overcast
9:53 AM 37.0 °F 27.4 °F 34.0 °F 89% 30.29 in 3.0 mi NW 17.3 mph 24.2 mph N/A   Overcast
10:53 AM 37.0 °F 27.7 °F 34.0 °F 89% 30.25 in 5.0 mi North 16.1 mph 28.8 mph N/A   Overcast
11:53 AM 37.0 °F 27.4 °F 32.0 °F 82% 30.31 in 10.0 mi NW 17.3 mph 26.5 mph N/A   Overcast
12:53 PM 37.0 °F 27.4 °F 30.0 °F 76% 30.26 in 10.0 mi NNW 17.3 mph 25.3 mph N/A   Overcast
1:06 PM 37.4 °F 29.8 °F 30.2 °F 75% 30.27 in 10.0 mi NNW 11.5 mph 26.5 mph N/A   Overcast
1:53 PM 37.9 °F 28.9 °F 30.0 °F 73% 30.24 in 10.0 mi NNW 16.1 mph 25.3 mph N/A   Overcast
2:53 PM 37.9 °F 28.2 °F 28.9 °F 70% 30.23 in 10.0 mi NNW 18.4 mph 25.3 mph N/A   Overcast
3:53 PM 39.0 °F 30.3 °F 30.0 °F 70% 30.22 in 10.0 mi NNW 16.1 mph 23.0 mph N/A   Overcast
4:53 PM 39.9 °F 31.8 °F 28.9 °F 65% 30.22 in 10.0 mi NNW 15.0 mph - N/A   Overcast
5:53 PM 39.0 °F 32.3 °F 30.0 °F 70% 30.22 in 10.0 mi NNW 10.4 mph 23.0 mph 0.00 in   Overcast
6:53 PM 39.9 °F 32.5 °F 28.9 °F 65% 30.20 in 10.0 mi NNW 12.7 mph 20.7 mph 0.00 in   Overcast
7:53 PM 39.0 °F 31.0 °F 32.0 °F 76% 30.21 in 10.0 mi NW 13.8 mph 20.7 mph N/A   Overcast
8:53 PM 39.9 °F 31.8 °F 33.1 °F 77% 30.21 in 10.0 mi NW 15.0 mph 20.7 mph N/A   Overcast
9:53 PM 42.1 °F 35.7 °F 34.0 °F 73% 30.23 in 10.0 mi NW 11.5 mph - N/A   Overcast
10:53 PM 41.0 °F 33.9 °F 34.0 °F 76% 30.25 in 10.0 mi WNW 12.7 mph 23.0 mph N/A   Overcast
11:53 PM 39.9 °F 31.8 °F 36.0 °F 86% 30.22 in 10.0 mi NW 15.0 mph - 0.00 in   Overcast